{"data":{"norad_id":63094,"epoch":"2026-05-25T03:54:58.707072Z","epoch_age_seconds":64930,"freshness":"FRESH","line1":"1 63094U 25037T   26145.16317948  .00001070  00000+0  97437-4 0  9997","line2":"2 63094  70.0006 161.7755 0004444 265.6988  94.3664 14.98337617 70007","mean_motion":14.98337617,"eccentricity":0.0004444,"inclination_deg":70.0006,"raan_deg":161.7755,"arg_perigee_deg":265.6988,"mean_anomaly_deg":94.3664,"bstar":9.7437e-5,"rev_number":7000,"period_min":96.106510552888,"perigee_km":568.94368084707,"apogee_km":575.12099135299,"semimajor_km":6950.1693361,"source":"CELESTRAK","updated_at":"2026-05-25T13:38:19.880695Z"}}